{"data":{"norad_id":51148,"epoch":"2026-05-24T18:40:21.919872Z","epoch_age_seconds":108286,"freshness":"FRESH","line1":"1 51148U 22005AW  26144.77803148  .00025261  00000+0  14588-2 0  9996","line2":"2 51148  53.2171 326.7441 0001902  96.7749 263.3461 15.12191963240099","mean_motion":15.12191963,"eccentricity":0.0001902,"inclination_deg":53.2171,"raan_deg":326.7441,"arg_perigee_deg":96.7749,"mean_anomaly_deg":263.3461,"bstar":0.0014588,"rev_number":24009,"period_min":95.226005377202,"perigee_km":528.20287354094,"apogee_km":530.83054501195,"semimajor_km":6907.6537092764,"source":"CELESTRAK","updated_at":"2026-05-25T13:38:16.916022Z"}}